User: anonymous   Login
Location: Pilipovskiye Korichintsy
(49.1833°N, 27.4667°E)
Time: 23:37:18
(UTC+00:00)
Language:

H-2A R/B - Orbit

View from above orbital plane
View from above orbital plane
View from above satellite
View from above satellite

Ground track
Ground track

The orbit data is extracted from the following two-line orbital elements,

1 38341U 12025E   20273.41530841 +.00000303 +00000-0 +43137-4 0  9997
2 38341 098.5129 075.2423 0054316 257.7053 101.8074 14.84076243452782
Epoch (UTC): 29 September 2020 09:58:02
Eccentricity: 0.0054316
inclination: 98.5129°
perigee height: 578 km
apogee height: 654 km
right ascension of ascending node: 75.2423°
argument of perigee: 257.7053°
revolutions per day: 14.84076243
mean anomaly at epoch: 101.8074°
orbit number at epoch: 45278

The dashed part of the orbit path shows where the satellite is in the earth's shadow,  

DLR